Location: Newark
(41.6500°N, 71.4833°W)
Time: 19:52:27
(UTC+00:00)

Transit 2A Rocket - Pass Details

Date: 31 January 2020
Orbit: 592 x 911 km, 66.7° (Epoch: 16 February)

Event Time Altitude Azimuth Distance (km) Brightness Sun altitude
Rises 15:15:02 0° 346° (NNW) 2,997 7.5 26.2°
Reaches altitude 10° 15:19:32 10° 26° (NNE) 2,169 7.1 26.6°
Maximum altitude 15:20:33 11° 38° (NE) 2,151 7.2 26.7°
Drops below altitude 10° 15:21:35 10° 50° (NE) 2,210 7.3 26.8°
Sets 15:26:22 0° 89° (E) 3,233 8.5 27.1°
